Regional Weather Roundup
Issued by NWS

Home | Current Version | Previous Version | Text Only | Print | Product List | Glossary On
Versions: 1 2 3 4 5 6 7 8 9 10 11 12 13 14 15 16 17 18 19 20 21 22 23 24 25 26 27 28 29 30 31 32 33 34 35 36 37 38 39 40 41 42 43 44 45 46 47 48 49 50
000
ASUS44 KMEG 231400
RWRTN
TENNESSEE HOURLY STATE WEATHER ROUNDUP
NATIONAL WEATHER SERVICE MEMPHIS TN
900 AM CDT TUE MAY 23 2017

TNZ002-004-019-021-049-052-054-088>092-231500-
WEST TENNESSEE

CITY           SKY/WX    TMP DP  RH WIND       PRES   REMARKS
MEMPHIS INTL   CLOUDY    71  60  68 NW6       29.80F
NWS MEMPHIS      N/A     69 N/A N/A MISG        N/A
JACKSON        CLOUDY    67  60  78 CALM      29.80S
DYERSBURG      PTSUNNY   69  57  65 CALM      29.80F
$$

TNZ008-025-027-028-033-062-065-066-231500-
NORTH MIDDLE TENNESSEE

CITY           SKY/WX    TMP DP  RH WIND       PRES   REMARKS
NASHVILLE      CLOUDY    69  57  65 CALM      29.80F
CLARKSVILLE    PTSUNNY   66  55  67 CALM      29.80F
SMYRNA         LGT RAIN  64  57  78 CALM      29.82F
CROSSVILLE     CLOUDY    63  58  83 CALM      29.83F
$$

TNZ061-075-076-078-094-096-097-231500-
SOUTH MIDDLE TENNESSEE

CITY           SKY/WX    TMP DP  RH WIND       PRES   REMARKS
TULLAHOMA      CLOUDY    63  63 100 SE3       29.80F
WINCHESTER     CLOUDY    63  63 100 E5        29.79F
$$

TNZ017-018-042-046-047-231500-
NORTHEAST TENNESSEE

CITY           SKY/WX    TMP DP  RH WIND       PRES   REMARKS
TRI CITIES     CLOUDY    65  60  84 CALM      29.85F
$$

TNZ012-013-036-069-073-074-231500-
CENTRAL EAST TENNESSEE

CITY           SKY/WX    TMP DP  RH WIND       PRES   REMARKS
KNOXVILLE      CLOUDY    64  62  93 NE6       29.81F FOG
OAK RIDGE      CLOUDY    65  59  81 CALM      29.83F
GATLINBURG     CLOUDY    63  61  94 CALM      29.82F
$$

TNZ083-085-099-231500-
SOUTHEAST TENNESSEE

CITY           SKY/WX    TMP DP  RH WIND       PRES   REMARKS
CHATTANOOGA    DRIZZLE   65  62  90 CALM      29.80F FOG
$$

SKY/WX REPORTED AS FAIR MEANS FEW OR NO CLOUDS BELOW
12 THOUSAND FEET.





USA.gov is the U.S. government's official web portal to all federal, state and local government web resources and services.